Content
SEND FEEDBACK

United Kingdom Flag

LONDON, ENGLAND


Home > Europe > United Kingdom > England
Elevation: 61 meters     Latitude: 51 09N     Longitude: 000 11W

WEATHER
 
SELECT A DAY
Number of Records: 319,713;   Date Range: 7/1/96 - 3/22/16
 
SHARE

PRINT THIS DATA

[ ← Previous Day ]
WEATHER ALMANAC - 1 FEBRUARY, 2013
[ Next Day → ]
[ °F ]   °C
Weather ElementAverageHighLow
Temperature5.4 °C8 °C (12:50 am)2 °C (9:20 pm)
Dewpoint3.3 °C6 °C (2:50 am)1 °C (8:20 pm)
Humidity86.8 %93 % (5:20 am)76 % (3:50 am)
Barometer1001.7 hPa1011.2 hPa (12:50 am)998 hPa (3:20 pm)
Wind Speed9.5 km/h18.5 km/h (3:20 pm)
Weather ElementAverage
Visibility9.2 km
Wind DirectionSSW (212.6 °)

Weather ElementTotal
Precipitation---
Heating Degree Days13.3 (Base 18.3)
Averaged from 47 records on 1 February, 2013
WEATHER CONDITIONS BREAKOUT
WIND DIRECTION BREAKOUT
WEATHER BY HOUR - 1 FEBRUARY, 2013
[ °F ]   °C
Local TimeTemperatureDewpointHumidityBarometerVisibilityWind DirectionWind SpeedGust SpeedPrecipitationEventsConditions
12:50 AM8 °C5 °C81 %1011.2 hPa9 kmWSW (240°)16.7 km/h
1:20 AM8 °C5 °C81 %1011.2 hPa9 kmWSW (240°)13 km/h
1:50 AM8 °C5 °C81 %1010.2 hPa10 kmSW (220°)11.1 km/hPartly Cloudy
2:20 AM8 °C5 °C81 %1010.2 hPa9 kmSW (220°)9.3 km/h
2:50 AM8 °C6 °C87 %1009.1 hPa9 kmSW (230°)11.1 km/hScattered Clouds
3:20 AM8 °C6 °C87 %1009.1 hPa8 kmSW (230°)9.3 km/hRainLight Rain
3:50 AM8 °C4 °C76 %1008.1 hPa9 kmWSW (240°)14.8 km/hRainLight Rain
4:20 AM7 °C4 °C81 %1007.1 hPa10 kmSW (230°)13 km/hRainLight Rain
4:50 AM7 °C5 °C87 %1006.1 hPa10 kmSW (220°)11.1 km/hRainLight Rain
5:20 AM6 °C5 °C93 %1006.1 hPa9 kmSW (220°)9.3 km/hRainLight Rain
5:50 AM6 °C4 °C87 %1005.1 hPa10 kmVariable5.6 km/hRainLight Rain
6:20 AM6 °C4 °C87 %1004.1 hPa8 kmSW (220°)5.6 km/hRainLight Rain
6:50 AM6 °C4 °C87 %1003 hPa8 kmVariable3.7 km/hRainLight Rain
7:20 AM5 °C4 °C93 %1003 hPa6.9 kmCalmRainLight Rain
7:50 AM5 °C4 °C93 %1002 hPa4 kmCalmRainLight Rain
8:20 AM5 °C4 °C93 %1002 hPa4 kmNW (310°)7.4 km/hRainLight Rain
8:50 AM5 °C4 °C93 %1001 hPa5 kmWest (280°)9.3 km/hRainLight Rain
9:20 AM5 °C4 °C93 %1001 hPa10 kmWest (280°)5.6 km/hRainLight Rain
9:50 AM5 °C4 °C93 %1000 hPa10 kmVariable5.6 km/hRainLight Rain
10:20 AM5 °C4 °C93 %1000 hPa10 kmNW (310°)11.1 km/hRainLight Rain
10:50 AM5 °C4 °C93 %1000 hPa10 kmNW (320°)16.7 km/hRainLight Rain
11:20 AM5 °C3 °C87 %1000 hPa10 kmNW (320°)14.8 km/hRainLight Rain
11:50 AM5 °C3 °C87 %999 hPa10 kmNNW (340°)13 km/hRainLight Rain
12:20 PM5 °C3 °C87 %999 hPa10 kmNW (320°)14.8 km/hRainLight Rain
12:50 PM6 °C4 °C87 %999 hPa10 kmNW (310°)14.8 km/hMostly Cloudy
1:20 PM6 °C4 °C87 %999 hPa10 kmNW (310°)14.8 km/hScattered Clouds
1:50 PM6 °C4 °C87 %999 hPa10 kmNW (310°)14.8 km/hMostly Cloudy
2:20 PM6 °C3 °C81 %999 hPa10 kmNW (310°)13 km/hScattered Clouds
2:50 PM7 °C3 °C76 %999 hPa10 kmNW (320°)14.8 km/hScattered Clouds
3:20 PM6 °C3 °C81 %998 hPa10 kmNW (310°)18.5 km/hPartly Cloudy
3:50 PM6 °C3 °C81 %999 hPa10 kmNW (320°)11.1 km/hPartly Cloudy
4:20 PM6 °C3 °C81 %999 hPa10 kmWest (280°)11.1 km/hPartly Cloudy
4:50 PM5 °C2 °C81 %998 hPa10 kmWest (260°)13 km/hPartly Cloudy
5:20 PM5 °C2 °C81 %998 hPaWSW (250°)9.3 km/hClear
5:50 PM5 °C2 °C81 %998 hPaSW (230°)9.3 km/hClear
6:20 PM5 °C2 °C81 %998 hPaSW (230°)5.6 km/hClear
6:50 PM4 °C2 °C87 %998 hPaSSW (210°)7.4 km/hClear
7:20 PM4 °C2 °C87 %999 hPaSSW (210°)7.4 km/hClear
7:50 PM4 °C2 °C87 %999 hPaSW (230°)5.6 km/hClear
8:20 PM3 °C1 °C87 %999 hPa10 kmVariable3.7 km/hPartly Cloudy
8:50 PM3 °C2 °C93 %999 hPa10 kmVariable5.6 km/hMostly Cloudy
9:20 PM2 °C1 °C93 %999 hPa10 kmVariable3.7 km/hMostly Cloudy
9:50 PM2 °C1 °C93 %1000 hPa10 kmCalmMostly Cloudy
10:20 PM3 °C2 °C93 %1000 hPa10 kmVariable3.7 km/hMostly Cloudy
10:50 PM4 °C2 °C87 %1001 hPa10 kmWNW (290°)7.4 km/hScattered Clouds
11:20 PM3 °C2 °C93 %1001 hPa10 kmNW (310°)7.4 km/hPartly Cloudy
11:50 PM3 °C2 °C93 %1002 hPa10 kmNW (310°)9.3 km/hPartly Cloudy
Hourly data recorded from EGKK, located 0 kilometers away from London, England




STORIES FROM OUR PARTNERS